TimePDT,TemperatureF,Dew PointF,Humidity,Sea Level PressureIn,VisibilityMPH,Wind Direction,Wind SpeedMPH,Gust SpeedMPH,PrecipitationIn,Events,Conditions,WindDirDegrees,DateUTC
12:15 AM,37.4,35.6,93,30.01,10.0,Calm,Calm,-,N/A,,Clear,0,2013-04-08 07:15:00
12:35 AM,37.4,33.8,87,30.02,10.0,Calm,Calm,-,N/A,,Clear,0,2013-04-08 07:35:00
12:55 AM,37.4,35.6,93,30.03,10.0,Calm,Calm,-,N/A,,Clear,0,2013-04-08 07:55:00
1:15 AM,35.6,33.8,93,30.03,10.0,Calm,Calm,-,N/A,,Clear,0,2013-04-08 08:15:00
1:35 AM,35.6,35.6,100,30.05,10.0,Calm,Calm,-,N/A,,Partly Cloudy,0,2013-04-08 08:35:00
1:55 AM,35.6,35.6,100,30.05,10.0,Calm,Calm,-,N/A,,Clear,0,2013-04-08 08:55:00
2:15 AM,33.8,33.8,100,30.06,10.0,SW,4.6,-,N/A,,Clear,220,2013-04-08 09:15:00
2:35 AM,33.8,33.8,100,30.07,10.0,Calm,Calm,-,N/A,,Partly Cloudy,0,2013-04-08 09:35:00
2:55 AM,35.6,33.8,93,30.07,10.0,WSW,3.5,-,N/A,,Mostly Cloudy,250,2013-04-08 09:55:00
3:15 AM,35.6,35.6,100,30.08,10.0,WSW,3.5,-,N/A,,Overcast,250,2013-04-08 10:15:00
3:35 AM,35.6,35.6,100,30.08,10.0,Calm,Calm,-,N/A,,Overcast,0,2013-04-08 10:35:00
3:55 AM,35.6,35.6,100,30.09,10.0,Calm,Calm,-,N/A,,Overcast,0,2013-04-08 10:55:00
4:15 AM,37.4,37.4,100,30.09,10.0,Calm,Calm,-,N/A,,Overcast,0,2013-04-08 11:15:00
4:35 AM,37.4,37.4,100,30.10,10.0,West,4.6,-,N/A,,Overcast,270,2013-04-08 11:35:00
4:55 AM,37.4,37.4,100,30.10,10.0,Calm,Calm,-,N/A,,Overcast,0,2013-04-08 11:55:00
5:15 AM,37.4,37.4,100,30.11,10.0,SSE,3.5,-,N/A,,Mostly Cloudy,160,2013-04-08 12:15:00
5:35 AM,37.4,35.6,93,30.12,10.0,Calm,Calm,-,N/A,,Scattered Clouds,0,2013-04-08 12:35:00
5:55 AM,37.4,37.4,100,30.13,10.0,WNW,5.8,-,N/A,,Mostly Cloudy,290,2013-04-08 12:55:00
6:15 AM,37.4,37.4,100,30.14,10.0,West,4.6,-,N/A,,Mostly Cloudy,270,2013-04-08 13:15:00
6:35 AM,37.4,35.6,93,30.14,10.0,West,5.8,-,N/A,,Scattered Clouds,270,2013-04-08 13:35:00
6:55 AM,37.4,37.4,100,30.15,10.0,East,3.5,-,N/A,,Mostly Cloudy,90,2013-04-08 13:55:00
7:15 AM,37.4,37.4,100,30.16,10.0,Calm,Calm,-,N/A,,Mostly Cloudy,0,2013-04-08 14:15:00
7:35 AM,39.2,37.4,93,30.16,10.0,Calm,Calm,-,N/A,,Mostly Cloudy,0,2013-04-08 14:35:00
7:55 AM,39.2,39.2,100,30.17,10.0,Calm,Calm,-,N/A,,Scattered Clouds,0,2013-04-08 14:55:00
8:15 AM,42.8,39.2,87,30.18,10.0,Calm,Calm,-,N/A,,Mostly Cloudy,0,2013-04-08 15:15:00
8:35 AM,42.8,39.2,87,30.19,10.0,Calm,Calm,-,N/A,,Overcast,0,2013-04-08 15:35:00
8:55 AM,44.6,41.0,87,30.18,10.0,South,3.5,-,N/A,,Overcast,180,2013-04-08 15:55:00
9:15 AM,44.6,42.8,93,30.18,10.0,South,3.5,-,N/A,,Overcast,190,2013-04-08 16:15:00
9:35 AM,46.4,42.8,87,30.18,10.0,South,4.6,-,N/A,,Overcast,180,2013-04-08 16:35:00
9:55 AM,46.4,42.8,87,30.19,10.0,SSW,3.5,-,N/A,,Mostly Cloudy,200,2013-04-08 16:55:00
10:15 AM,48.2,42.8,82,30.20,10.0,SSE,3.5,-,N/A,,Overcast,160,2013-04-08 17:15:00
10:35 AM,48.2,41.0,76,30.20,10.0,Calm,Calm,-,N/A,,Overcast,0,2013-04-08 17:35:00
10:55 AM,48.2,41.0,76,30.20,8.0,Calm,Calm,-,N/A,,Overcast,0,2013-04-08 17:55:00
11:15 AM,51.8,42.8,71,30.21,10.0,North,-9999.0,-,N/A,,Overcast,0,2013-04-08 18:15:00
11:35 AM,48.2,39.2,71,30.21,10.0,Calm,Calm,-,N/A,,Overcast,0,2013-04-08 18:35:00
11:55 AM,50.0,41.0,71,30.22,10.0,Calm,Calm,-,N/A,,Overcast,0,2013-04-08 18:55:00
12:15 PM,51.8,42.8,71,30.21,10.0,SE,3.5,-,N/A,,Overcast,140,2013-04-08 19:15:00
12:35 PM,51.8,42.8,71,30.22,10.0,West,10.4,-,N/A,,Overcast,270,2013-04-08 19:35:00
12:55 PM,50.0,44.6,82,30.22,10.0,WNW,3.5,-,N/A,,Overcast,290,2013-04-08 19:55:00
1:15 PM,53.6,42.8,67,30.22,10.0,West,5.8,-,N/A,,Mostly Cloudy,270,2013-04-08 20:15:00
1:35 PM,50.0,42.8,76,30.23,10.0,West,11.5,-,N/A,,Overcast,270,2013-04-08 20:35:00
1:55 PM,51.8,44.6,76,30.22,10.0,West,9.2,-,N/A,,Overcast,280,2013-04-08 20:55:00
2:15 PM,55.4,44.6,67,30.23,10.0,West,12.7,17.3,N/A,,Mostly Cloudy,280,2013-04-08 21:15:00
2:35 PM,55.4,44.6,67,30.22,10.0,West,9.2,-,N/A,,Mostly Cloudy,260,2013-04-08 21:35:00
2:55 PM,55.4,44.6,67,30.22,10.0,WNW,11.5,17.3,N/A,,Mostly Cloudy,300,2013-04-08 21:55:00
3:15 PM,53.6,42.8,67,30.22,10.0,NW,5.8,-,N/A,,Mostly Cloudy,310,2013-04-08 22:15:00
3:35 PM,55.4,42.8,63,30.22,10.0,WNW,10.4,-,N/A,,Overcast,300,2013-04-08 22:35:00
3:55 PM,53.6,42.8,67,30.23,10.0,NW,8.1,-,N/A,,Overcast,310,2013-04-08 22:55:00
4:15 PM,53.6,44.6,72,30.23,10.0,NE,5.8,-,N/A,,Overcast,40,2013-04-08 23:15:00
4:35 PM,53.6,42.8,67,30.23,10.0,West,12.7,-,N/A,,Overcast,280,2013-04-08 23:35:00
4:55 PM,55.4,41.0,58,30.23,10.0,West,9.2,-,N/A,,Overcast,280,2013-04-08 23:55:00
5:15 PM,55.4,42.8,63,30.23,10.0,West,9.2,-,N/A,,Overcast,270,2013-04-09 00:15:00
5:35 PM,57.2,42.8,59,30.24,10.0,West,12.7,-,N/A,,Overcast,270,2013-04-09 00:35:00
5:55 PM,55.4,41.0,58,30.24,10.0,West,12.7,-,N/A,,Mostly Cloudy,270,2013-04-09 00:55:00
6:15 PM,53.6,41.0,62,30.25,10.0,West,10.4,-,N/A,,Scattered Clouds,270,2013-04-09 01:15:00
6:35 PM,51.8,41.0,67,30.25,10.0,West,8.1,-,N/A,,Partly Cloudy,280,2013-04-09 01:35:00
6:55 PM,51.8,39.2,62,30.26,10.0,West,10.4,-,N/A,,Clear,280,2013-04-09 01:55:00
7:15 PM,48.2,39.2,71,30.26,10.0,West,6.9,-,N/A,,Partly Cloudy,280,2013-04-09 02:15:00
7:35 PM,48.2,39.2,71,30.27,10.0,West,9.2,-,N/A,,Partly Cloudy,280,2013-04-09 02:35:00
7:55 PM,46.4,39.2,76,30.27,10.0,West,8.1,-,N/A,,Clear,280,2013-04-09 02:55:00
8:15 PM,46.4,39.2,76,30.27,10.0,West,8.1,-,N/A,,Clear,280,2013-04-09 03:15:00
8:35 PM,46.4,39.2,76,30.28,10.0,West,8.1,-,N/A,,Clear,280,2013-04-09 03:35:00
8:55 PM,44.6,39.2,81,30.28,10.0,West,8.1,-,N/A,,Clear,280,2013-04-09 03:55:00
9:15 PM,44.6,39.2,81,30.29,10.0,West,5.8,-,N/A,,Clear,280,2013-04-09 04:15:00
9:35 PM,44.6,39.2,81,30.29,10.0,West,6.9,-,N/A,,Clear,270,2013-04-09 04:35:00
9:55 PM,44.6,39.2,81,30.30,10.0,West,5.8,-,N/A,,Clear,280,2013-04-09 04:55:00
10:15 PM,44.6,39.2,81,30.30,10.0,WNW,4.6,-,N/A,,Scattered Clouds,290,2013-04-09 05:15:00
10:35 PM,42.8,39.2,87,30.30,10.0,West,4.6,-,N/A,,Scattered Clouds,280,2013-04-09 05:35:00
10:55 PM,42.8,39.2,87,30.30,10.0,West,5.8,-,N/A,,Clear,280,2013-04-09 05:55:00
11:15 PM,42.8,39.2,87,30.30,10.0,West,5.8,-,N/A,,Clear,260,2013-04-09 06:15:00
11:35 PM,42.8,39.2,87,30.31,10.0,West,6.9,-,N/A,,Clear,280,2013-04-09 06:35:00
11:55 PM,42.8,39.2,87,30.31,10.0,West,5.8,-,N/A,,Clear,280,2013-04-09 06:55:00